Location: Lombard
(41.8800°N, 88.0080°W)
Time: 03:58:52
(UTC-05:00)

Vanguard 2 Rocket - Pass Details

Date: 23 February 2024
Orbit: 555 x 3307 km, 32.9° (Epoch: 12 April)

Event Time Altitude Azimuth Distance (km) Brightness Sun altitude
Rises 15:58:23 0° 252° (WSW) 4,764 12.3 15.8°
Reaches altitude 10° 16:01:03 10° 248° (WSW) 4,078 12.8 15.4°
Maximum altitude 16:12:36 60° 172° (S) 2,790 9.7 13.5°
Drops below altitude 10° 16:30:54 10° 100° (E) 6,176 10.7 10.4°
Sets 16:36:04 0° 97° (E) 7,284 11.0 9.5°
